Date String (YYYY-MM-DD hh:mm:ss) UTC,Instrument flags,Ambient pressure (hPa),Sample flow (lpm),Bypass flow (lpm),Sample temperature (°C),Ambient temperature (°C),ASC tube jacket temperature (°C),LED temperature (°C),Box temperature (°C),Sample RH (%),Span deviation,Mass concentration (μg/m³),Mass concentration (μg/m³),Mass concentration (μg/m³)
DateTimeUTC,F1_M11,P_M11,Q1_M11,Q2_M11,T1_M11,T2_M11,T3_M11,T4_M11,T5_M11,U1_M11,ZSPAN_M11,X0_M11,X2_M11,X1_M11
2022-06-01 08:00:00,,0833.1,5.00,0.00,26.8,25.7,00.0,35.9,28.7,21.3,0000.0,0001.59,0000.93,0000.70
2022-06-01 08:01:00,,0833.1,5.00,0.00,26.8,25.6,00.0,35.9,28.6,21.3,0000.0,0001.58,0000.93,0000.69
2022-06-01 08:02:00,,0833.1,5.00,0.00,26.8,25.6,00.0,35.9,28.6,21.3,0000.0,0001.65,0000.94,0000.68
2022-06-01 08:03:00,,0833.1,5.01,0.00,26.8,25.6,00.0,35.8,28.6,21.3,0000.0,0001.79,0000.97,0000.68
2022-06-01 08:04:00,,0833.0,4.99,0.00,26.8,25.6,00.0,35.8,28.6,21.3,0000.0,0001.71,0000.94,0000.67
2022-06-01 08:05:00,,0833.0,5.00,0.00,26.7,25.5,00.0,35.8,28.6,21.3,0000.0,0001.63,0000.90,0000.65
2022-06-01 08:06:00,,0833.0,4.99,0.00,26.7,25.5,00.0,35.8,28.6,21.3,0000.0,0001.83,0000.89,0000.64
2022-06-01 08:07:00,,0833.0,5.01,0.00,26.7,25.5,00.0,35.8,28.6,21.2,0000.0,0001.82,0000.88,0000.62
2022-06-01 08:08:00,,0833.0,5.00,0.00,26.7,25.5,00.0,35.8,28.5,21.1,0000.0,0001.69,0000.84,0000.60
2022-06-01 08:09:00,,0833.0,5.00,0.00,26.7,25.5,00.0,35.7,28.5,21.0,0000.0,0001.66,0000.81,0000.58
2022-06-01 08:10:00,,0832.9,5.00,0.00,26.7,25.5,00.0,35.7,28.5,21.0,0000.0,0001.85,0000.79,0000.58
2022-06-01 08:11:00,,0832.9,4.99,0.00,26.6,25.5,00.0,35.7,28.4,21.0,0000.0,0001.89,0000.79,0000.56
2022-06-01 08:12:00,,0832.8,5.00,0.00,26.6,25.4,00.0,35.7,28.4,20.9,0000.0,0001.88,0000.77,0000.55
2022-06-01 08:13:00,,0832.8,5.01,0.00,26.6,25.4,00.0,35.7,28.4,20.9,0000.0,0001.84,0000.75,0000.53
2022-06-01 08:14:00,,0832.7,4.99,0.00,26.6,25.4,00.0,35.7,28.4,20.9,0000.0,0002.22,0000.69,0000.52
2022-06-01 08:15:00,,0832.7,5.00,0.00,26.6,25.4,00.0,35.6,28.4,20.9,0000.0,0002.76,0000.68,0000.51
2022-06-01 08:16:00,,0832.7,5.00,0.00,26.6,25.4,00.0,35.6,28.4,21.0,0000.0,0002.72,0000.66,0000.51
2022-06-01 08:17:00,,0832.8,4.99,0.00,26.5,25.4,00.0,35.6,28.4,20.9,0000.0,0002.50,0000.66,0000.50
2022-06-01 08:18:00,,0832.7,5.01,0.00,26.5,25.4,00.0,35.6,28.4,20.8,0000.0,0002.51,0000.67,0000.50
2022-06-01 08:19:00,,0832.8,4.99,0.00,26.5,25.3,00.0,35.6,28.3,20.7,0000.0,0002.52,0000.68,0000.49
2022-06-01 08:20:00,,0832.8,5.00,0.00,26.5,25.3,00.0,35.6,28.3,20.7,0000.0,0002.55,0000.69,0000.49
2022-06-01 08:21:00,,0832.9,5.01,0.00,26.5,25.3,00.0,35.6,28.3,20.7,0000.0,0002.21,0000.67,0000.48
2022-06-01 08:22:00,,0833.0,5.01,0.00,26.5,25.3,00.0,35.5,28.3,20.7,0000.0,0002.16,0000.65,0000.48
2022-06-01 08:23:00,,0833.0,4.98,0.00,26.4,25.2,00.0,35.5,28.2,20.8,0000.0,0002.22,0000.66,0000.48
2022-06-01 08:24:00,,0832.9,5.01,0.00,26.4,25.2,00.0,35.5,28.2,20.8,0000.0,0002.27,0000.67,0000.47
2022-06-01 08:25:00,,0832.8,5.00,0.00,26.4,25.2,00.0,35.5,28.2,20.9,0000.0,0002.01,0000.69,0000.47
2022-06-01 08:26:00,,0832.9,5.00,0.00,26.4,25.1,00.0,35.5,28.2,20.9,0000.0,0001.40,0000.73,0000.47
2022-06-01 08:27:00,,0832.9,5.00,0.00,26.3,25.1,00.0,35.5,28.1,21.0,0000.0,0001.36,0000.74,0000.47
2022-06-01 08:28:00,,0832.9,5.00,0.00,26.3,25.1,00.0,35.4,28.1,21.7,0000.0,0001.36,0000.74,0000.47
2022-06-01 08:29:00,,0832.8,5.01,0.00,26.3,25.1,00.0,35.4,28.1,23.1,0000.0,0001.37,0000.74,0000.48
2022-06-01 08:30:00,,0832.9,5.00,0.00,26.3,25.1,00.0,35.4,28.1,22.4,0000.0,0001.31,0000.73,0000.49
2022-06-01 08:31:00,,0832.8,5.01,0.00,26.3,25.1,00.0,35.4,28.1,21.8,0000.0,0001.30,0000.74,0000.51
2022-06-01 08:32:00,,0832.8,5.00,0.00,26.2,25.0,00.0,35.4,28.1,21.7,0000.0,0001.32,0000.76,0000.53
2022-06-01 08:33:00,,0832.8,5.00,0.00,26.2,25.0,00.0,35.3,28.1,21.7,0000.0,0001.39,0000.78,0000.54
2022-06-01 08:34:00,,0832.8,5.00,0.00,26.2,25.0,00.0,35.3,28.1,21.7,0000.0,0001.42,0000.81,0000.56
2022-06-01 08:35:00,,0832.9,4.99,0.00,26.2,25.0,00.0,35.3,28.1,21.8,0000.0,0001.41,0000.82,0000.58
2022-06-01 08:36:00,,0832.9,5.01,0.00,26.2,25.0,00.0,35.3,28.0,21.8,0000.0,0001.39,0000.82,0000.60
2022-06-01 08:37:00,,0832.9,5.00,0.00,26.2,25.0,00.0,35.3,28.0,21.8,0000.0,0001.33,0000.80,0000.61
2022-06-01 08:38:00,,0832.9,4.99,0.00,26.2,25.0,00.0,35.3,28.0,21.9,0000.0,0001.35,0000.81,0000.62
2022-06-01 08:39:00,,0832.9,5.01,0.00,26.2,25.0,00.0,35.2,28.0,21.9,0000.0,0001.41,0000.83,0000.62
2022-06-01 08:40:00,,0832.8,5.00,0.00,26.1,25.0,00.0,35.2,28.0,21.9,0000.0,0001.57,0000.85,0000.63
2022-06-01 08:41:00,,0832.9,4.99,0.00,26.1,25.0,00.0,35.2,28.0,21.9,0000.0,0001.71,0000.88,0000.64
2022-06-01 08:42:00,,0832.8,5.01,0.00,26.1,25.0,00.0,35.2,28.0,22.0,0000.0,0001.85,0000.92,0000.64
2022-06-01 08:43:00,,0832.9,4.99,0.00,26.1,25.0,00.0,35.2,28.0,22.0,0000.0,0001.93,0000.94,0000.64
2022-06-01 08:44:00,,0832.9,5.00,0.00,26.1,25.0,00.0,35.2,27.9,22.0,0000.0,0001.98,0000.97,0000.64
2022-06-01 08:45:00,,0832.9,5.00,0.00,26.1,24.9,00.0,35.2,27.9,22.0,0000.0,0001.88,0000.95,0000.63
2022-06-01 08:46:00,,0832.8,5.00,0.00,26.1,24.9,00.0,35.2,27.9,22.0,0000.0,0001.97,0000.98,0000.63
2022-06-01 08:47:00,,0832.8,5.00,0.00,26.1,24.9,00.0,35.1,27.9,22.0,0000.0,0001.99,0000.98,0000.62
2022-06-01 08:48:00,,0832.8,4.99,0.00,26.1,24.9,00.0,35.1,27.9,22.1,0000.0,0002.04,0001.01,0000.62
2022-06-01 08:49:00,,0832.8,4.99,0.00,26.1,24.9,00.0,35.1,27.9,22.1,0000.0,0002.06,0001.03,0000.64
2022-06-01 08:50:00,,0832.7,5.01,0.00,26.1,24.9,00.0,35.1,27.9,22.2,0000.0,0002.08,0001.04,0000.64
2022-06-01 08:51:00,,0832.8,4.99,0.00,26.1,24.9,00.0,35.1,27.9,22.1,0000.0,0001.99,0001.05,0000.64
2022-06-01 08:52:00,,0832.7,5.00,0.00,26.1,24.9,00.0,35.1,27.9,22.0,0000.0,0001.88,0001.04,0000.63
2022-06-01 08:53:00,,0832.7,5.00,0.00,26.1,24.9,00.0,35.1,27.9,22.0,0000.0,0001.72,0000.99,0000.63
2022-06-01 08:54:00,,0832.8,5.00,0.00,26.0,24.9,00.0,35.1,27.9,21.9,0000.0,0001.66,0000.98,0000.64
2022-06-01 08:55:00,,0832.8,5.00,0.00,26.0,24.9,00.0,35.1,27.9,22.0,0000.0,0001.63,0000.96,0000.64
2022-06-01 08:56:00,,0832.7,5.00,0.00,26.0,24.9,00.0,35.1,27.9,22.0,0000.0,0001.66,0000.98,0000.64
2022-06-01 08:57:00,,0832.7,5.01,0.00,26.0,24.9,00.0,35.0,27.9,22.0,0000.0,0001.63,0000.97,0000.64
2022-06-01 08:58:00,,0832.8,5.00,0.00,26.0,24.9,00.0,35.0,27.9,22.0,0000.0,0001.65,0000.97,0000.64
2022-06-01 08:59:00,,0832.8,4.99,0.00,26.0,24.9,00.0,35.0,27.9,22.0,0000.0,0001.57,0000.94,0000.63
